�������l�o���
Date,Time,MP-1(��Sv/h),MP-2(��Sv/h),MP-3(��Sv/h),MP-4(��Sv/h),MP-5(��Sv/h),MP-6(��Sv/h),MP-7(��Sv/h),MP-8(��Sv/h),����,����(m/s),���J
2024/05/17,00:00,0.488,0.742,0.472,0.913,0.660,0.310,0.542,0.508,�k��,5.6,��
2024/05/17,00:10,0.487,0.741,0.470,0.915,0.662,0.309,0.542,0.508,�k��,5.0,��
2024/05/17,00:20,0.486,0.740,0.472,0.914,0.661,0.310,0.543,0.509,�k��,3.8,��
2024/05/17,00:30,0.485,0.742,0.471,0.913,0.662,0.310,0.540,0.508,�k�k��,2.0,��
2024/05/17,00:40,0.486,0.741,0.472,0.914,0.662,0.310,0.542,0.508,�k,1.7,��
2024/05/17,00:50,0.486,0.740,0.471,0.913,0.660,0.309,0.541,0.508,�k�k��,2.3,��
2024/05/17,01:00,0.487,0.741,0.473,0.913,0.661,0.310,0.542,0.507,�k,2.5,��
2024/05/17,01:10,0.487,0.744,0.471,0.914,0.660,0.308,0.541,0.506,�k�k��,3.2,��
2024/05/17,01:20,0.485,0.741,0.471,0.913,0.661,0.309,0.543,0.508,�k��,2.2,��
2024/05/17,01:30,0.487,0.742,0.471,0.912,0.662,0.310,0.543,0.508,�k��,1.5,��
2024/05/17,01:40,0.487,0.741,0.471,0.913,0.662,0.310,0.540,0.507,�k,2.0,��
2024/05/17,01:50,0.486,0.741,0.470,0.912,0.663,0.309,0.541,0.507,�k,1.5,��
2024/05/17,02:00,0.486,0.741,0.471,0.913,0.661,0.309,0.542,0.508,��,0.9,��
2024/05/17,02:10,0.486,0.743,0.473,0.913,0.660,0.308,0.541,0.508,���쐼,1.4,��
2024/05/17,02:20,0.486,0.741,0.472,0.915,0.661,0.310,0.543,0.508,�쐼,1.2,��
2024/05/17,02:30,0.487,0.742,0.472,0.911,0.661,0.309,0.542,0.509,��쐼,1.5,��
2024/05/17,02:40,0.487,0.740,0.470,0.914,0.661,0.309,0.542,0.508,��쐼,2.2,��
2024/05/17,02:50,0.486,0.742,0.470,0.915,0.662,0.309,0.543,0.507,���쐼,2.3,��
2024/05/17,03:00,0.487,0.740,0.472,0.913,0.662,0.308,0.541,0.507,�쐼,1.7,��
2024/05/17,03:10,0.488,0.739,0.471,0.913,0.660,0.309,0.542,0.507,�쐼,1.4,��
2024/05/17,03:20,0.486,0.739,0.472,0.913,0.662,0.308,0.541,0.507,��,1.1,��
2024/05/17,03:30,0.486,0.740,0.470,0.913,0.663,0.309,0.541,0.507,�쐼,1.5,��
2024/05/17,03:40,0.485,0.740,0.470,0.913,0.662,0.309,0.543,0.508,��쐼,2.6,��
2024/05/17,03:50,0.486,0.742,0.473,0.914,0.662,0.308,0.542,0.508,��쐼,3.3,��
2024/05/17,04:00,0.487,0.742,0.472,0.915,0.662,0.309,0.542,0.507,��,3.9,��
2024/05/17,04:10,0.485,0.741,0.470,0.914,0.662,0.310,0.541,0.507,��,4.7,��
2024/05/17,04:20,0.487,0.740,0.471,0.914,0.662,0.308,0.542,0.507,��쓌,4.5,��
2024/05/17,04:30,0.488,0.741,0.473,0.915,0.663,0.310,0.541,0.508,��,4.3,��
2024/05/17,04:40,0.486,0.742,0.471,0.913,0.661,0.309,0.542,0.507,��쓌,3.8,��
2024/05/17,04:50,0.488,0.743,0.472,0.914,0.661,0.308,0.541,0.508,��쓌,3.4,��
2024/05/17,05:00,0.487,0.741,0.472,0.913,0.661,0.309,0.542,0.508,��,4.0,��
2024/05/17,05:10,0.486,0.743,0.470,0.912,0.661,0.309,0.542,0.508,��쓌,4.0,��
2024/05/17,05:20,0.485,0.744,0.471,0.913,0.662,0.309,0.542,0.508,��,4.4,��
2024/05/17,05:30,0.486,0.742,0.471,0.913,0.662,0.308,0.542,0.507,��,4.7,��
2024/05/17,05:40,0.487,0.756,0.471,0.913,0.661,0.309,0.542,0.507,��,6.1,��
2024/05/17,05:50,0.486,0.742,0.472,0.915,0.663,0.309,0.543,0.507,��쐼,6.1,��
2024/05/17,06:00,0.487,0.742,0.472,0.913,0.661,0.309,0.542,0.506,��,6.5,��
2024/05/17,06:10,0.487,0.742,0.471,0.913,0.661,0.309,0.544,0.507,��,6.4,��
2024/05/17,06:20,0.487,0.742,0.471,0.915,0.663,0.309,0.544,0.507,��,6.6,��
2024/05/17,06:30,0.489,0.741,0.471,0.914,0.664,0.308,0.544,0.507,��,6.4,��
2024/05/17,06:40,0.488,0.741,0.470,0.912,0.663,0.309,0.544,0.507,��,5.2,��
2024/05/17,06:50,0.487,0.740,0.471,0.915,0.661,0.308,0.545,0.507,��,4.5,��
2024/05/17,07:00,0.488,0.742,0.471,0.914,0.662,0.307,0.546,0.507,��,5.4,��
2024/05/17,07:10,0.486,0.740,0.472,0.916,0.663,0.307,0.544,0.508,��,3.9,��
2024/05/17,07:20,0.487,0.740,0.472,0.915,0.663,0.307,0.545,0.509,��,5.0,��
2024/05/17,07:30,0.486,0.740,0.472,0.915,0.659,0.309,0.547,0.508,��,5.2,��
2024/05/17,07:40,0.486,0.741,0.471,0.913,0.662,0.307,0.546,0.508,��,5.7,��
2024/05/17,07:50,0.486,0.741,0.472,0.916,0.663,0.308,0.544,0.507,��,5.5,��
2024/05/17,08:00,0.486,0.741,0.472,0.918,0.663,0.308,0.544,0.509,��쓌,4.9,��
2024/05/17,08:10,0.486,0.742,0.473,0.915,0.664,0.308,0.545,0.506,��쓌,6.4,��
2024/05/17,08:20,0.486,0.741,0.472,0.916,0.662,0.308,0.544,0.506,��쓌,6.8,��
2024/05/17,08:30,0.485,0.743,0.473,0.914,0.662,0.307,0.545,0.506,��쓌,7.0,��
2024/05/17,08:40,0.485,0.742,0.471,0.914,0.662,0.308,0.546,0.505,��쐼,1.5,��
2024/05/17,08:50,0.487,0.740,0.472,0.915,0.662,0.307,0.543,0.505,�쐼,1.5,��
2024/05/17,09:00,0.487,0.743,0.474,0.916,0.662,0.308,0.544,0.506,���쐼,6.2,��
2024/05/17,09:10,0.486,0.742,0.473,0.917,0.660,0.308,0.543,0.506,���쐼,8.3,��
2024/05/17,09:20,0.489,0.745,0.472,0.916,0.662,0.307,0.543,0.506,���쐼,7.4,��
2024/05/17,09:30,0.487,0.743,0.472,0.918,0.663,0.309,0.542,0.505,��,7.9,��
2024/05/17,09:40,0.489,0.742,0.469,0.918,-,0.308,0.544,0.507,���쐼,8.3,��
2024/05/17,09:50,0.489,0.744,0.469,0.916,-,0.309,0.542,0.506,���쐼,8.6,��
2024/05/17,10:00,0.488,0.746,0.470,0.915,-,0.308,0.542,0.508,���쐼,4.9,��
2024/05/17,10:10,0.488,0.743,0.471,0.917,-,0.309,0.541,0.507,���쐼,6.9,��
2024/05/17,10:20,0.488,0.746,0.470,0.916,-,0.310,0.541,0.506,���쐼,6.1,��
2024/05/17,10:30,0.488,0.746,0.471,0.918,-,0.309,0.542,0.506,���쐼,9.7,��
2024/05/17,10:40,0.489,0.746,0.473,0.917,-,0.308,0.539,0.507,���쐼,6.1,��
2024/05/17,10:50,0.489,0.745,0.473,0.916,-,0.309,0.543,0.508,�쐼,7.6,��
2024/05/17,11:00,0.488,0.743,0.472,0.916,-,0.309,0.541,0.507,���쐼,7.2,��
2024/05/17,11:10,0.488,0.746,0.471,0.915,-,0.307,0.542,0.508,���쐼,6.8,��
2024/05/17,11:20,0.488,0.745,0.473,0.914,-,0.309,0.541,0.508,���쐼,6.1,��
2024/05/17,11:30,0.489,0.745,0.472,0.914,-,0.309,0.541,0.508,�쐼,7.0,��
2024/05/17,11:40,0.488,0.743,0.474,0.915,-,0.307,0.541,0.507,���쐼,8.5,��
2024/05/17,11:50,0.490,0.747,0.472,0.919,-,0.307,0.543,0.508,���쐼,8.4,��
2024/05/17,12:00,0.488,0.746,0.473,0.917,-,0.308,0.541,0.507,���쐼,9.1,��
2024/05/17,12:10,0.490,0.747,0.473,0.915,-,0.309,0.542,0.508,�쐼,11.4,��
2024/05/17,12:20,0.490,0.745,0.474,0.916,-,0.308,0.542,0.510,���쐼,10.0,��
2024/05/17,12:30,0.491,0.749,0.474,0.918,-,0.309,0.541,0.509,���쐼,9.3,��
2024/05/17,12:40,0.491,0.747,0.474,0.917,-,0.309,0.542,0.510,��,8.2,��
2024/05/17,12:50,0.491,0.747,0.474,0.918,-,0.309,0.541,0.509,��,9.8,��
2024/05/17,13:00,0.490,0.748,0.475,0.918,0.665,0.309,0.540,0.509,���쐼,6.5,��
2024/05/17,13:10,0.492,0.749,0.475,0.917,0.667,0.311,0.541,0.508,��,7.1,��
2024/05/17,13:20,0.492,0.749,0.474,0.921,0.668,0.310,0.543,0.510,��,9.2,��
2024/05/17,13:30,0.491,0.749,0.474,0.917,0.667,0.309,0.542,0.510,��,6.5,��
2024/05/17,13:40,0.491,0.749,0.476,0.920,0.668,0.311,0.542,0.510,��,9.5,��
2024/05/17,13:50,0.491,0.749,0.474,0.920,0.667,0.310,0.543,0.509,��,8.9,��
2024/05/17,14:00,0.490,0.748,0.473,0.922,0.670,0.309,0.542,0.511,��,8.9,��
2024/05/17,14:10,0.492,0.750,0.475,0.920,0.668,0.310,0.543,0.510,���k��,12.5,��
2024/05/17,14:20,0.492,0.749,0.475,0.920,0.668,0.310,0.543,0.510,��,13.8,��
2024/05/17,14:30,0.492,0.750,0.473,0.922,0.670,0.310,0.542,0.511,���쐼,10.3,��
2024/05/17,14:40,0.493,0.749,0.476,0.922,0.668,0.310,0.542,0.510,��,11.6,��
2024/05/17,14:50,0.493,0.750,0.474,0.923,0.667,0.309,0.544,0.510,��,13.3,��
2024/05/17,15:00,0.493,0.749,0.475,0.923,0.668,0.310,0.543,0.511,��,11.3,��
2024/05/17,15:10,0.493,0.749,0.475,0.924,0.671,0.312,0.542,0.511,���쐼,9.2,��
2024/05/17,15:20,0.493,0.752,0.477,0.924,0.668,0.309,0.543,0.512,��,8.0,��
2024/05/17,15:30,0.493,0.752,0.477,0.924,0.671,0.312,0.542,0.511,��,9.2,��
2024/05/17,15:40,0.493,0.750,0.476,0.925,0.671,0.310,0.542,0.511,���쐼,7.9,��
2024/05/17,15:50,0.492,0.750,0.476,0.925,0.670,0.310,0.542,0.512,��,11.1,��
2024/05/17,16:00,0.494,0.751,0.477,0.925,0.670,0.311,0.544,0.510,��,7.6,��
2024/05/17,16:10,0.494,0.753,0.476,0.927,0.670,0.311,0.544,0.511,���k��,9.1,��
2024/05/17,16:20,0.493,0.752,0.476,0.925,0.671,0.310,0.545,0.511,���쐼,6.8,��
2024/05/17,16:30,0.494,0.753,0.477,0.925,0.671,0.311,0.543,0.512,���k��,9.1,��
2024/05/17,16:40,0.492,0.751,0.476,0.927,0.671,0.311,0.543,0.511,��,7.8,��
2024/05/17,16:50,0.494,0.753,0.477,0.929,0.674,0.311,0.544,0.511,��,5.3,��
2024/05/17,17:00,0.492,0.752,0.476,0.928,0.671,0.311,0.542,0.511,��,6.7,��
2024/05/17,17:10,0.493,0.753,0.476,0.927,0.672,0.312,0.542,0.510,��,8.3,��
2024/05/17,17:20,0.494,0.752,0.477,0.928,0.672,0.310,0.543,0.511,��,7.1,��
2024/05/17,17:30,0.493,0.751,0.475,0.929,0.671,0.310,0.542,0.511,���쐼,6.6,��
2024/05/17,17:40,0.495,0.753,0.477,0.929,0.672,0.311,0.544,0.513,���쐼,4.4,��
2024/05/17,17:50,0.494,0.753,0.476,0.930,0.672,0.311,0.542,0.511,��,7.6,��
2024/05/17,18:00,0.493,0.756,0.477,0.929,0.670,0.309,0.541,0.512,��,7.0,��
2024/05/17,18:10,0.493,0.753,0.477,0.928,0.670,0.309,0.543,0.512,���쐼,6.7,��
2024/05/17,18:20,0.493,0.756,0.476,0.928,0.671,0.311,0.542,0.513,��,5.9,��
2024/05/17,18:30,0.493,0.756,0.477,0.929,0.672,0.311,0.541,0.512,��,6.8,��
2024/05/17,18:40,0.494,0.756,0.475,0.928,0.672,0.311,0.542,0.512,��,5.5,��
2024/05/17,18:50,0.494,0.756,0.475,0.931,0.673,0.308,0.541,0.513,��,5.1,��
2024/05/17,19:00,0.494,0.755,0.475,0.933,0.675,0.310,0.542,0.514,���k��,3.5,��
2024/05/17,19:10,0.494,0.756,0.476,0.932,0.673,0.312,0.542,0.512,���k��,3.7,��
2024/05/17,19:20,0.496,0.757,0.477,0.934,0.676,0.312,0.543,0.512,���k��,5.4,��
2024/05/17,19:30,0.496,0.757,0.478,0.931,0.674,0.311,0.544,0.512,���k��,6.4,��
2024/05/17,19:40,0.495,0.755,0.477,0.932,0.674,0.311,0.545,0.513,���k��,4.9,��
2024/05/17,19:50,0.495,0.755,0.479,0.931,0.676,0.311,0.544,0.512,���k��,5.3,��
2024/05/17,20:00,0.496,0.756,0.478,0.932,0.675,0.309,0.543,0.512,�k��,5.4,��
2024/05/17,20:10,0.494,0.755,0.478,0.932,0.676,0.312,0.542,0.513,�k��,4.3,��
2024/05/17,20:20,0.496,0.757,0.478,0.931,0.673,0.310,0.545,0.512,���k��,3.1,��
2024/05/17,20:30,0.495,0.757,0.477,0.933,0.674,0.312,0.543,0.512,�k��,1.2,��
2024/05/17,20:40,0.496,0.755,0.478,0.933,0.675,0.311,0.546,0.511,-,CALM,��
2024/05/17,20:50,0.495,0.756,0.478,0.930,0.674,0.312,0.545,0.512,-,CALM,��
2024/05/17,21:00,0.494,0.757,0.478,0.932,0.675,0.312,0.545,0.512,��,2.3,��
2024/05/17,21:10,0.496,0.757,0.477,0.933,0.675,0.311,0.545,0.513,���k��,3.6,��
2024/05/17,21:20,0.494,0.754,0.477,0.931,0.674,0.312,0.545,0.510,���k��,4.1,��
2024/05/17,21:30,0.496,0.755,0.477,0.932,0.674,0.314,0.545,0.510,���k��,5.2,��
2024/05/17,21:40,0.496,0.754,0.477,0.932,0.673,0.312,0.544,0.512,���k��,5.0,��
2024/05/17,21:50,0.496,0.757,0.478,0.932,0.673,0.312,0.545,0.511,���k��,5.3,��
2024/05/17,22:00,0.494,0.755,0.478,0.930,0.673,0.311,0.545,0.512,�k��,4.5,��
2024/05/17,22:10,0.496,0.756,0.480,0.933,0.675,0.311,0.546,0.511,�k��,4.5,��
2024/05/17,22:20,0.495,0.755,0.478,0.933,0.675,0.311,0.545,0.512,���k��,5.0,��
2024/05/17,22:30,0.495,0.755,0.477,0.932,0.675,0.310,0.546,0.511,���k��,5.4,��
2024/05/17,22:40,0.496,0.757,0.477,0.933,0.673,0.312,0.544,0.511,�k��,6.5,��
2024/05/17,22:50,0.497,0.756,0.475,0.934,0.674,0.312,0.542,0.510,�k��,7.2,��
2024/05/17,23:00,0.495,0.756,0.477,0.933,0.674,0.312,0.545,0.511,���k��,6.0,��
2024/05/17,23:10,0.497,0.755,0.479,0.931,0.673,0.312,0.545,0.510,���k��,5.0,��
2024/05/17,23:20,0.496,0.756,0.478,0.934,0.675,0.313,0.545,0.510,��,3.6,��
2024/05/17,23:30,0.496,0.756,0.478,0.933,0.674,0.312,0.545,0.510,���쐼,2.8,��
2024/05/17,23:40,0.496,0.757,0.477,0.932,0.674,0.311,0.545,0.510,�쐼,2.8,��
2024/05/17,23:50,0.494,0.756,0.477,0.931,0.676,0.310,0.545,0.510,���쓌,1.5,��
